[[{"header":{"parameterUnit":"m.s-1","parameterCategory":1,"la1":30.2991,"la2":30.254,"lo1":-89.0895,"lo2":-89.0444,"dy":0.0017,"dx":0.0017,"nx":28,"ny":28,"refTime":"2024-07-22T21:00:00:Z","depth":0,"parameterNumber":2,"parameterNumberName":"U-component_of_WINDS"},"data":[0,0,0,0,0,0,0,0,0,0,0,0,0,0,0,0,0,0,0,0,0,0,0,0,0,0,0,0,0,0,0,0,0,0,0,0,0,0,0,0,0,0,0,0,0,0,0,0,0,0,0,0,0,0,0,0,0,0,1.6488,1.6488,0,1.6488,1.6488,1.6488,1.646,1.6459,1.6459,1.6458,1.6458,1.6459,1.646,0,0,0,0,0,0,0,0,0,0,0,0,0,1.6459,1.646,1.6488,1.6488,1.6488,1.6488,1.6488,1.6488,1.646,1.6459,1.6458,1.6457,1.6458,1.6459,1.646,0,0,0,0,0,0,0,0,0,0,0,0,0,1.6467,1.646,1.6488,1.6474,1.6473,1.6488,1.6488,1.6488,1.646,1.6459,1.6458,1.6457,1.6458,1.6459,1.646,1.6489,0,0,1.6463,1.6464,0,0,0,0,0,0,0,0,1.6467,1.6468,1.6476,1.6475,1.6473,1.6473,1.6478,1.6489,1.6461,1.6465,1.6458,1.6456,1.6464,1.6465,1.6467,1.6489,1.6489,1.6463,1.6464,1.6464,1.6465,0,0,0,0,0,0,0,1.6466,1.6468,1.6488,1.6476,1.6475,1.6466,1.6466,1.648,1.6471,1.6465,1.6462,1.6463,1.6463,1.6466,1.6467,1.6489,1.6463,1.6464,1.6465,1.6465,1.653,1.6531,0,0,0,0,0,0,1.6468,1.6468,1.6488,1.6488,1.6467,1.6468,1.6468,1.6474,1.6471,1.6469,1.6464,1.6462,1.6465,1.6466,1.6467,1.6498,1.6464,1.6465,1.6466,1.6529,1.653,1.6532,0,0,0,0,0,0,1.6467,1.647,1.6488,1.6477,1.6479,1.647,1.6477,1.6475,1.6478,1.647,1.6468,1.6469,1.6464,1.6465,1.6483,1.6497,1.6466,1.6467,1.6528,1.653,1.6531,1.6561,0,0,0,0,0,0,1.6466,1.647,1.6482,1.6478,1.648,1.6505,1.6478,1.6476,1.648,1.6477,1.6474,1.6473,1.6463,1.6481,1.6484,1.6498,1.6468,1.6526,1.6529,1.6531,1.6559,1.6564,1.6568,0,0,0,0,0,1.6466,1.6491,1.6483,1.6485,1.6495,1.6506,1.6507,1.6496,1.6481,1.6492,1.6486,1.6473,1.6496,1.6483,1.6486,1.6501,1.6526,1.6528,1.653,1.6557,1.6563,1.6568,0,0,0,0,0,0,1.6499,1.6491,1.6481,1.6507,1.6507,1.6501,1.6515,1.6503,1.6508,1.6505,1.649,1.649,1.6508,1.6507,1.6493,1.6527,1.6508,1.6511,1.6527,1.6533,1.6537,1.6536,1.6469,0,0,0,0,0,1.6509,1.6519,1.6512,1.6535,1.6535,1.6525,1.653,1.652,1.652,1.6521,1.6516,1.6517,1.6523,1.6528,1.6534,1.6559,1.6556,1.657,1.6574,1.6578,1.658,1.6589,1.6594,1.654,1.654,1.654,0,0,1.653,1.6527,1.6535,1.6541,1.654,1.655,1.6526,1.6538,1.6544,1.6522,1.6538,1.6534,1.6533,1.6553,1.6562,1.6552,1.6595,1.6581,1.6584,1.6585,1.6592,1.6598,1.6602,1.6541,1.6541,1.6541,0,0,1.6573,1.6574,1.6591,1.6589,1.6588,1.658,1.6584,1.658,1.6576,1.6591,1.6574,1.6581,1.6594,1.6592,1.6593,1.6631,1.6617,1.6634,1.6657,1.6665,1.667,1.6673,1.6684,1.6688,1.6636,1.6636,1.6636,0,1.66,1.6614,1.6601,1.6613,1.6615,1.6594,1.661,1.661,1.6611,1.6612,1.6601,1.6613,1.6612,1.6629,1.6638,1.6641,1.6643,1.6634,1.667,1.6674,1.6677,1.6687,1.6691,1.6638,1.6638,1.6638,1.6638,0,1.6645,1.6655,1.6669,1.6668,1.6672,1.6686,1.6673,1.6678,1.6668,1.6661,1.6674,1.667,1.6673,1.6677,1.6668,1.6692,1.6686,1.6673,1.6653,1.6684,1.6693,1.6697,1.6641,1.664,1.6639,1.6639,0,0,1.6711,1.67,1.6705,1.6703,1.6698,1.6705,1.6717,1.6719,1.6722,1.6722,1.673,1.6739,1.6726,1.6727,1.6717,1.6725,1.6751,1.6711,1.671,1.6716,1.6774,1.6782,1.6787,1.6742,1.6743,1.6744,1.6773,0,1.6751,1.677,1.6756,1.6777,1.6784,1.6763,1.6772,1.677,1.6762,1.6766,1.6758,1.6764,1.6748,1.6748,1.6755,1.6747,1.6762,1.6744,1.6747,1.6748,1.6747,1.6792,1.6802,1.683,1.6776,1.6777,1.6778,0,1.68,1.68,1.6821,1.6811,1.6813,1.6822,1.6821,1.6826,1.6821,1.6815,1.6814,1.6801,1.6809,1.679,1.6801,1.6789,1.6789,1.6785,1.6785,1.6784,1.6764,1.679,1.6839,1.6842,1.6784,1.6783,1.6783,0,1.6842,1.6848,1.686,1.6859,1.6848,1.6854,1.685,1.6844,1.6845,1.6844,1.6843,1.6844,1.6843,1.6843,1.6829,1.6817,1.684,1.6821,1.6833,1.6833,1.6838,1.6838,1.6886,1.6842,1.6842,1.6842,1.6841,0,1.6886,1.6899,1.6878,1.6886,1.6899,1.6882,1.6895,1.6888,1.6882,1.6887,1.6869,1.6874,1.6856,1.6858,1.6847,1.6855,1.6856,1.685,1.6847,1.6851,1.6851,1.685,1.6847,1.6843,1.6842,1.6842,1.6842,0,1.6935,1.6922,1.6933,1.6921,1.6918,1.6928,1.6917,1.6922,1.6913,1.6918,1.6919,1.6904,1.6905,1.6891,1.689,1.6883,1.6895,1.6889,1.6896,1.6894,1.6906,1.6904,1.6953,1.6958,1.6913,1.6913,1.6914,0,1.6964,1.6973,1.696,1.6961,1.6958,1.6961,1.696,1.6943,1.6944,1.6936,1.6942,1.6942,1.694,1.6943,1.6931,1.6929,1.6922,1.6939,1.6922,1.6924,1.6919,1.6918,1.6918,1.6943,1.6943,1.6944,1.6944,0,1.7014,1.7006,1.7007,1.7004,1.7003,1.7001,1.6997,1.6999,1.698,1.6981,1.6981,1.698,1.6977,1.6976,1.6971,1.6965,1.6951,1.695,1.6952,1.6955,1.6958,1.6954,1.6904,1.6949,1.6948,1.6948,1.6948,1.6947,1.7052,1.7057,1.7048,1.7048,1.7043,1.7039,1.7042,1.7032,1.7032,1.7028,1.7018,1.7019,1.701,1.7002,1.6997,1.6997,1.6988,1.6993,1.6993,1.6994,1.6995,1.6959,1.6996,1.6996,1.6996,1.6996,1.6996,0,1.7099,1.7091,1.7092,1.7085,1.7084,1.707,1.7064,1.7064,1.7065,1.7058,1.7056,1.7054,1.7052,1.7039,1.7035,1.7037,1.703,1.7037,1.7036,1.7034,1.7004,1.7002,1.7042,1.7042,1.7042,1.7042,1.7042,1.7042,1.7123,1.7131,1.7121,1.7125,1.7117,1.7117,1.7114,1.7109,1.7103,1.7102,1.71,1.7091,1.7081,1.7075,1.7072,1.7068,1.7066,1.7074,1.7068,1.7041,1.7036,1.7032,1.7029,1.7075,1.7075,1.7097,1.7097,1.7098]},{"header":{"parameterUnit":"m.s-1","parameterCategory":1,"la1":30.2991,"la2":30.254,"lo1":-89.0895,"lo2":-89.0444,"dy":0.0017,"dx":0.0017,"nx":28,"ny":28,"refTime":"2024-07-22T21:00:00:Z","depth":0,"parameterNumber":3,"parameterNumberName":"V-component_of_WINDS"},"data":[0,0,0,0,0,0,0,0,0,0,0,0,0,0,0,0,0,0,0,0,0,0,0,0,0,0,0,0,0,0,0,0,0,0,0,0,0,0,0,0,0,0,0,0,0,0,0,0,0,0,0,0,0,0,0,0,0,0,3.1989,3.1988,0,3.1957,3.1957,3.1956,3.187,3.1869,3.1867,3.1865,3.1833,3.1834,3.1835,0,0,0,0,0,0,0,0,0,0,0,0,0,3.1974,3.1975,3.1989,3.1988,3.1988,3.1957,3.1957,3.1956,3.1871,3.1869,3.1866,3.1864,3.1833,3.1834,3.1835,0,0,0,0,0,0,0,0,0,0,0,0,0,3.1965,3.1975,3.1989,3.1942,3.1937,3.1957,3.1957,3.1956,3.1871,3.1868,3.1866,3.1863,3.1832,3.1834,3.1835,3.1898,0,0,3.1839,3.1839,0,0,0,0,0,0,0,0,3.1966,3.1966,3.1949,3.1945,3.194,3.1915,3.194,3.1937,3.1872,3.1896,3.1865,3.1862,3.1862,3.1861,3.1861,3.1897,3.1895,3.1839,3.184,3.184,3.1841,0,0,0,0,0,0,0,3.1967,3.1967,3.1976,3.1949,3.1943,3.1922,3.1917,3.1939,3.1895,3.1894,3.1888,3.1885,3.1859,3.186,3.186,3.1895,3.1839,3.184,3.1841,3.1841,3.1978,3.1981,0,0,0,0,0,0,3.1974,3.1968,3.1977,3.1975,3.1946,3.1924,3.1919,3.1926,3.1895,3.1887,3.1887,3.1881,3.1859,3.1858,3.1858,3.1928,3.184,3.1842,3.1842,3.1975,3.1979,3.1982,0,0,0,0,0,0,3.1974,3.1976,3.1978,3.197,3.1968,3.1927,3.1935,3.1926,3.1927,3.189,3.1882,3.1896,3.1857,3.1857,3.1888,3.1926,3.1842,3.1843,3.1972,3.1976,3.198,3.2071,0,0,0,0,0,0,3.1974,3.1976,3.2,3.1971,3.1969,3.201,3.1938,3.1928,3.1929,3.1921,3.1896,3.1889,3.1855,3.1887,3.189,3.1926,3.1844,3.1968,3.1974,3.1979,3.2064,3.2077,3.2089,0,0,0,0,0,3.1974,3.2028,3.2002,3.2004,3.1999,3.2012,3.2011,3.197,3.1933,3.1956,3.1932,3.189,3.1922,3.1891,3.1893,3.1931,3.1966,3.1972,3.1978,3.2058,3.2075,3.2089,0,0,0,0,0,0,3.2063,3.2023,3.1994,3.204,3.203,3.1997,3.2026,3.1989,3.199,3.1982,3.1931,3.1926,3.1965,3.1951,3.1917,3.1989,3.1937,3.1944,3.1997,3.2012,3.2024,3.2026,3.1845,0,0,0,0,0,3.2088,3.2103,3.2067,3.2111,3.2107,3.2068,3.2072,3.2041,3.2029,3.2024,3.2002,3.1992,3.1999,3.2005,3.201,3.2062,3.2054,3.2089,3.2101,3.2112,3.2118,3.2142,3.2157,3.2003,3.2003,3.2003,0,0,3.214,3.212,3.2132,3.2128,3.2117,3.2132,3.2065,3.2084,3.2094,3.2027,3.2055,3.2039,3.2023,3.2065,3.2082,3.2055,3.2159,3.212,3.2129,3.2129,3.2151,3.2165,3.2178,3.2007,3.2006,3.2006,0,0,3.2242,3.2229,3.2263,3.2253,3.2236,3.2209,3.2217,3.219,3.2176,3.2203,3.2152,3.2164,3.2178,3.2169,3.2166,3.2262,3.2223,3.2266,3.233,3.2354,3.2366,3.2377,3.2409,3.2422,3.2272,3.2273,3.2273,0,3.2309,3.233,3.2285,3.2307,3.2306,3.2245,3.2279,3.2271,3.2257,3.2257,3.2227,3.2242,3.2228,3.2265,3.2288,3.2289,3.2295,3.2268,3.2368,3.2378,3.2387,3.2418,3.243,3.2278,3.2277,3.2277,3.2276,0,3.2411,3.2427,3.2456,3.2443,3.2445,3.2473,3.2432,3.244,3.2409,3.2385,3.2413,3.2393,3.2392,3.2399,3.2369,3.2432,3.2415,3.2378,3.2323,3.2408,3.2436,3.2447,3.2285,3.2283,3.2282,3.228,0,0,3.2569,3.2529,3.2541,3.2533,3.2509,3.252,3.2545,3.2543,3.2549,3.2542,3.256,3.2573,3.2537,3.2534,3.2503,3.2524,3.2599,3.2484,3.2482,3.2504,3.2664,3.2691,3.2706,3.2574,3.2576,3.2577,3.2665,0,3.2663,3.2702,3.2662,3.2709,3.2721,3.2663,3.2684,3.2672,3.265,3.2657,3.2633,3.2642,3.2595,3.2592,3.2611,3.2586,3.2631,3.258,3.2589,3.259,3.2593,3.272,3.2749,3.2833,3.2676,3.2677,3.2679,0,3.2778,3.2774,3.2822,3.2793,3.2797,3.2817,3.2811,3.2819,3.2803,3.2785,3.2781,3.2743,3.2764,3.2712,3.2739,3.2706,3.2707,3.2695,3.2698,3.2696,3.2638,3.272,3.2859,3.2871,3.2696,3.2694,3.2693,0,3.2885,3.2893,3.2921,3.2917,3.2885,3.2899,3.2887,3.2868,3.2869,3.2864,3.2863,3.2862,3.286,3.2859,3.2821,3.2787,3.2853,3.2798,3.2838,3.2839,3.2853,3.2852,3.2992,3.2857,3.2857,3.2857,3.2856,0,3.2994,3.3025,3.2969,3.2986,3.3019,3.2973,3.3006,3.2988,3.2971,3.2984,3.2934,3.2947,3.2896,3.2904,3.2874,3.29,3.2901,3.2886,3.2878,3.289,3.2891,3.2889,3.2881,3.286,3.2859,3.2859,3.2858,0,3.3118,3.3082,3.3109,3.3076,3.3069,3.3094,3.3065,3.308,3.3054,3.3071,3.3072,3.3032,3.3038,3.3,3.2999,3.2979,3.3019,3.3001,3.3024,3.3018,3.3059,3.3055,3.3201,3.3216,3.3073,3.3075,3.3076,0,3.3189,3.3211,3.318,3.3184,3.3174,3.3182,3.3182,3.3138,3.314,3.3122,3.3139,3.314,3.3139,3.3151,3.3121,3.312,3.3101,3.3152,3.31,3.3111,3.3099,3.3098,3.3099,3.3163,3.3164,3.3166,3.3167,0,3.3317,3.3298,3.33,3.3296,3.3297,3.3292,3.3283,3.3289,3.324,3.3245,3.325,3.3249,3.3247,3.3249,3.3242,3.3228,3.3189,3.3184,3.3192,3.3204,3.3215,3.3208,3.3052,3.318,3.3179,3.3178,3.3177,3.3177,3.3415,3.3432,3.3412,3.3415,3.3404,3.3396,3.3408,3.3383,3.3386,3.3381,3.3355,3.3364,3.3346,3.3332,3.3322,3.3328,3.3303,3.3316,3.3319,3.3323,3.3329,3.3216,3.3327,3.3326,3.3326,3.3325,3.3325,0,3.3539,3.3523,3.3527,3.3516,3.3518,3.3481,3.3469,3.3474,3.3482,3.3469,3.3468,3.3473,3.3474,3.3445,3.3442,3.3452,3.3434,3.3453,3.3451,3.3448,3.3352,3.3344,3.3467,3.3467,3.3467,3.3467,3.3467,3.3467,3.3604,3.3629,3.3607,3.3625,3.3609,3.3617,3.3613,3.3605,3.3594,3.3601,3.3602,3.3582,3.3562,3.3557,3.3556,3.3547,3.3548,3.3572,3.3557,3.3469,3.3455,3.3441,3.3433,3.3573,3.3573,3.3652,3.3652,3.3653]}]]